Meteo Giornale » Osservazioni meteo Croazia » Pula Aerodrome

ore: 04:00 - Osservazioni Meteo Pula Aerodrome
Lat. 45° 54' N Lon. 13° 55' E Alt. 63 metri s.l.m.

sereno

23 °C

Sereno

Temp. 24 Ore

21 °C

31 °C

Nord/Nord-Est

11.1 Km/h

Dew point 11 °C

Umidità 46 %

Visibilità  10 Km

Il sole sorge alle ore 06:26

Il sole tramonta alle ore 19:41

Data e Ora Cielo e Fenomeni T °C DP °C Um. % Pres. hPa Vis. km Vento km/h
Oggi h: 04:00 sereno Sereno 23 11 46 1017 10 N/NE 11.1
Oggi h: 03:30 sereno Sereno 21 12 56 1017 10 N 5.5
Oggi h: 03:00 sereno Sereno 23 12 49 1017 10 NE 9.3
Oggi h: 02:30 poco_nuvoloso Poco Nuvoloso 23 12 49 1017 10 NE 11.1
Oggi h: 02:00 poco_nuvoloso Poco Nuvoloso 23 12 49 1017 10 N/NE 11.1
Oggi h: 01:30 poco_nuvoloso Poco Nuvoloso 23 12 49 1017 10 N/NE 11.1
Oggi h: 01:00 poco_nuvoloso Poco Nuvoloso 22 12 53 1017 10 N/NE 9.3
Oggi h: 00:30 poco_nuvoloso Poco Nuvoloso 23 13 53 1017 10 N/NE 11.1
Oggi h: 00:00 sereno Sereno 22 13 56 1017 10 N 5.5
Ieri h: 23:30 sereno Sereno 23 13 53 1017 10 N/NE 9.3
Ieri h: 23:00 sereno Sereno 21 13 60 1017 10 N 3.7
Ieri h: 22:30 sereno Sereno 22 14 60 1017 10 N 3.7
Ieri h: 22:00 sereno Sereno 23 14 56 1017 10 N 3.7
Ieri h: 21:30 poco_nuvoloso Poco Nuvoloso 24 14 53 1017 10 N 5.5
Ieri h: 21:00 poco_nuvoloso Poco Nuvoloso 22 14 60 1017 10 N 1.8
Ieri h: 20:30 sereno Sereno 23 15 60 1016 10 N 3.7
Ieri h: 20:00 sereno Sereno 25 15 53 1016 10 N 5.5
Ieri h: 19:30 sereno Sereno 27 14 44 1016 10 N 1.8
Ieri h: 19:00 sereno Sereno 29 14 39 1016 10 O 7.4
Ieri h: 18:30 sereno Sereno 30 14 37 1016 10 O 9.3
Ieri h: 18:00 sereno Sereno 30 14 37 1017 10 O/NO 11.1
Ieri h: 17:30 sereno Sereno 30 15 40 1017 10 O/NO 14.8
Ieri h: 17:00 sereno Sereno 31 11 29 1017 10 E/SE 11.1
Ieri h: 16:30 sereno Sereno 31 10 27 1017 10 E/SE 11.1
Ieri h: 16:00 sereno Sereno 31 11 29 1017 10 E 14.8
Ieri h: 15:30 sereno Sereno 31 10 27 1017 10 E/SE 16.7
Ieri h: 15:00 sereno Sereno 31 11 29 1017 10 E 20.3
Ieri h: 14:30 sereno Sereno 31 10 27 1017 10 E 24
Ieri h: 14:00 sereno Sereno 31 11 29 1017 10 E 22.2
Ieri h: 13:30 sereno Sereno 31 10 27 1017 10 E 25.9
Ieri h: 13:00 sereno Sereno 31 10 27 1017 10 E/NE 27.8
Ieri h: 12:30 sereno Sereno 30 10 28 1018 10 E/NE 31.5
Ieri h: 12:00 sereno Sereno 30 10 28 1018 10 E/NE 27.8
Ieri h: 11:30 sereno Sereno 30 11 30 1018 10 E 31.5
Ieri h: 11:00 sereno Sereno 29 11 32 1018 10 E 35.2
Ieri h: 10:30 sereno Sereno 29 11 32 1017 10 E/NE 33.3
Ieri h: 10:00 sereno Sereno 28 11 34 1017 10 E/NE 33.3
Ieri h: 09:30 sereno Sereno 27 12 39 1017 10 E 31.5
Ieri h: 09:00 sereno Sereno 27 13 42 1017 10 E/NE 27.8
Ieri h: 08:30 sereno Sereno 25 13 47 1017 10 E 27.8
Ieri h: 08:00 sereno Sereno 25 15 53 1017 10 E 27.8
Ieri h: 07:30 sereno Sereno 25 15 53 1017 10 E 25.9
Ieri h: 07:00 sereno Sereno 24 15 57 1016 10 E 25.9
Ieri h: 06:30 sereno Sereno 24 14 53 1016 10 E 27.8
Ieri h: 06:00 sereno Sereno 24 15 57 1016 10 E 22.2
Ieri h: 05:30 sereno Sereno 23 16 64 1016 10 E 20.3
Ieri h: 05:00 sereno Sereno 23 17 68 1016 10 E/NE 16.7